Back to catalog

SL-12 DEB

AliveHEO
NORAD 34667·DEBRIS·🇷🇺 Russia

Launched Apr 4, 1991 from Baikonur Cosmodrome

Loading…

Next Passes (next 24 hours)

TLE

FreshSource: Space-Track

Epoch: Sep 12, 2026, 10:46 UTC

1 34667U 91025L   26255.44862814 -.00000960  00000-0 -85369-2 0  9990
2 34667  65.4437  56.3647 5462468 344.5166  11.8743  4.44299396277608

Track SL-12 DEB in real time with AllMySat

Download on the App Store